Location: Alpha Ridge Park
(39.3209°N, 76.9128°W)
Time: 09:07:13
(UTC-04:00)

S-56A Canister/Altair - Pass Details

Date: 23 May 2019
Orbit: 633 x 2499 km, 38.9° (Epoch: 19 June)

Event Time Altitude Azimuth Distance (km) Brightness Sun altitude
Rises 10:23:15 0° 278° (W) 5,369 11.5 50.8°
Reaches altitude 10° 10:28:09 10° 262° (W) 4,660 11.3 51.7°
Maximum altitude 10:35:59 18° 225° (SW) 4,332 11.4 53.2°
Drops below altitude 10° 10:44:37 10° 189° (S) 5,148 12.0 54.7°
Sets 10:50:37 0° 173° (S) 6,138 12.4 55.8°
